Weather Service Report


098 
ASUS43 KBIS 080802
RWRBIS

NWR BROADCAST TEXT
NATIONAL WEATHER SERVICE BISMARCK ND
200 AM CST THU DEC 08 2016

NOTE: "FAIR" INDICATES FEW OR NO CLOUDS BELOW 12,000 FEET WITH NO
SIGNIFICANT WEATHER AND/OR OBSTRUCTIONS TO VISIBILITY.

  
CITY           SKY/WX    TMP DP  RH WIND       PRES   REMARKS
WILLISTON      CLOUDY    -1  -9  68 W12       30.61S WCI -18          
MINOT          FLURRIES   5   0  79 W26       30.49R WCI -18          
MINOT AFB      NOT AVBL                                               
BISMARCK       MIX PCPN   4  -1  80 NW21G28   30.51S WCI -17          
DICKINSON      CLEAR     -5 -10  79 NW16      30.49R WCI -27          
GARRISON         N/A      3  -2  79 NW23      30.49R WCI -19          
HETTINGER ARPT CLEAR     -2  -8  76 NW17      30.52R WCI -23          
JAMESTOWN      CLOUDY     7   3  84 NW29G35   30.38R BLWGSNOWWCI -16  
CARRINGTON     FOG        5   1  85 NW28      30.41R VSB 1   WCI -18  
HAZEN          LGT SNOW   5   0  78 W12G17    30.55R WCI -11          
RUGBY            N/A      3   0  85 NW20      30.44R WCI -18          
STANLEY        CLOUDY     1  -2  85 NW23G30   30.51R WCI -21          
TIOGA          PTSUNNY   -2  -4  92 W13       30.54S WCI -21          
WATFORD CITY   CLOUDY    -2  -8  78 W14       30.60S WCI -21          
$$
  
CITY           SKY/WX    TMP DP  RH WIND       PRES   REMARKS
GRAND FORKS    LGT SNOW  18  13  80 NW25      30.32R WCI   0          
GRAND FORKS AF FLURRIES  15  10  81 N22       30.33R WCI  -3          
DEVILS LAKE    NOT AVBL                                               
FARGO          LGT SNOW  17  11  77 NW25G33   30.30R WCI  -1          
GRAFTON        CLOUDY    18  14  86 NW18G29   30.35R WCI   2          
GWINNER        CLOUDY    14  10  85 NW23      30.35R WCI  -5          
LANGDON        LGT SNOW  12   9  85 NW24      30.32R WCI  -8          
$$
  
CITY           SKY/WX    TMP DP  RH WIND       PRES   REMARKS
ABERDEEN       LGT SNOW  10   3  73 NW20      30.43R WCI  -9          
MOBRIDGE       CLOUDY     6  -3  66 NW18G32   30.48R WCI -13          
BUFFALO          N/A     -1  -6  79 W15       30.42F WCI -21          
RAPID CITY     CLEAR      2  -6  69 N15       30.50R WCI -17          
GLASGOW        MOCLDY    -5 -10  79 NW8       30.63F WCI -20          
SIDNEY         CLOUDY    -5 -11  75 W5        30.64F WCI -16          
WOLF POINT     CLOUDY    -2  -9  72 W9        30.67S WCI -18          
GLENDIVE       MOCLDY    -3  -9  75 NW9       30.61F WCI -19          
MILES CITY     CLEAR     -4 -10  75 W6        30.62S WCI -16          
BAKER          CLOUDY    -1  -6  79 W16       30.54S WCI -21          
$$
  
CITY           SKY/WX    TMP DP  RH WIND       PRES   REMARKS
BILLINGS       MOCLDY     2  -5  72 E3        30.51S                  
GREAT FALLS    CLOUDY     0  -7  72 NE7       30.50F WCI -13          
$$

  


100 
ASUS43 KBIS 080802
RWRND 

NORTH DAKOTA REGIONAL WEATHER ROUNDUP
NATIONAL WEATHER SERVICE BISMARCK ND
200 AM CST THU DEC 08 2016

NOTE: "FAIR" INDICATES FEW OR NO CLOUDS BELOW 12,000 FEET WITH NO
SIGNIFICANT WEATHER AND/OR OBSTRUCTIONS TO VISIBILITY.


NDZ001>003-009>011-017-080900-
NORTHWEST NORTH DAKOTA
  
CITY           SKY/WX    TMP DP  RH WIND       PRES   REMARKS
WILLISTON      CLOUDY    -1  -9  68 W12       30.61S WCI -18          
MINOT          FLURRIES   5   0  79 W26       30.49R WCI -18          
$$
 
NDZ018>021-031>035-040>046-080900-
SOUTHWEST NORTH DAKOTA
  
CITY           SKY/WX    TMP DP  RH WIND       PRES   REMARKS
BISMARCK       MIX PCPN   4  -1  80 NW21G28   30.51S WCI -17          
DICKINSON      CLEAR     -5 -10  79 NW16      30.49R WCI -27          
GARRISON         N/A      3  -2  79 NW23      30.49R WCI -19          
HETTINGER ARPT CLEAR     -2  -8  76 NW17      30.52R WCI -23          
$$
 
NDZ004>008-012>016-024-026-027-054-080900-
NORTHEAST NORTH DAKOTA
  
CITY           SKY/WX    TMP DP  RH WIND       PRES   REMARKS
GRAND FORKS    LGT SNOW  18  13  80 NW25      30.32R WCI   0          
GRND FRKS AFB  FLURRIES  15  10  81 N22       30.33R WCI  -3          
$$
 
NDZ022-023-025-028>030-036>039-047>053-080900-
SOUTHEAST NORTH DAKOTA
  
CITY           SKY/WX    TMP DP  RH WIND       PRES   REMARKS
FARGO          LGT SNOW  17  11  77 NW25G33   30.30R WCI  -1          
JAMESTOWN      CLOUDY     7   3  84 NW29G35   30.38R BLWGSNOWWCI -16  
$$ 

  

Return to Home page


Western Regional Climate Center, wrcc@dri.edu